Retour au catalogue

COSMOS 2319

ActifNavigationGEO
NORAD 23653·PAYLOAD·🇷🇺 Russia

Lancé Aug 30, 1995 depuis Baikonur Cosmodrome

Loading…

TLE

FraisSource: Space-Track

Époque: Sep 13, 2026, 20:57 UTC

1 23653U 95045A   26256.87292251  .00000070  00000-0  00000+0 0  9995
2 23653  14.3334 352.0449 0006754 258.6832 110.1415  1.00160927113680

Suivez COSMOS 2319 en temps réel avec AllMySat

Download on the App Store